Regional Weather Roundup
Issued by NWS Wakefield, VA

Home | Current Version | Previous Version | Text Only | Print | Product List | Glossary On
Versions: 1 2 3 4 5 6 7 8 9 10 11 12 13 14 15 16 17 18 19 20 21 22 23 24 25 26 27 28 29 30 31 32 33 34 35 36 37 38 39 40 41 42 43 44 45 46 47 48 49 50
000
ASUS41 KAKQ 232314
RWRAKQ

REGIONAL WEATHER ROUNDUP
NATIONAL WEATHER SERVICE WAKEFIELD VA
600 PM EST THU FEB 23 2017

Note: "fair" indicates few or no clouds below 12,000 feet with no
significant weather and/or obstructions to visibility. * = Denotes
station may not report precipitation (e.g., rain,snow,etc.),
thunder or fog.

VAZ042-051-052>054-056-240000-
NORTHERN VIRGINIA

CITY           SKY/WX    TMP DP  RH WIND       PRES   REMARKS
WASH NATIONAL  FAIR      67  53  61 S10       29.83R
DULLES         MOCLDY    71  51  49 S10       29.83R
FORT BELVOIR   FAIR      72  52  49 VRB6      29.84R
QUANTICO       FAIR      59  51  75 SW8       29.85R
FREDERICKSBRG* FAIR      73  54  51 S10       29.84R
STAFFORD*      FAIR      71  52  50 S6        29.89R
WARRENTON      FAIR      72  47  41 S5        29.83R
CULPEPER*      FAIR      72  53  51 S6        29.85R
MANASSAS*        N/A     71  52  50 S8        29.84R
LEESBURG*      FAIR      72  54  53 MISG      29.83R
WINCHESTER     FAIR      70  50  49 S7        29.82R
FRONT ROYAL*   NOT AVBL
LURAY*         NOT AVBL
$$

VAZ048-049-060>072-079>083-240000-
CENTRAL AND SOUTH CENTRAL VIRGINIA

CITY           SKY/WX    TMP DP  RH WIND       PRES   REMARKS
RICHMOND       FAIR      66  52  60 S8        29.88R
CHESTERFIELD*  FAIR      70  43  37 S6        29.90R
PETERSBURG*    FAIR      67  50  55 CALM      29.89R
HANOVER        FAIR      70  49  47 S7        29.89R
TAPPAHANNOCK*  FAIR      70  43  36 S5        29.88R
QUINTON*       NOT AVBL
CHARLOTTSVILLE FAIR      71  52  50 S10       29.85R
GORDONSVILLE*  NOT AVBL
ORANGE*        FAIR      68  52  56 S7        29.86R
LOUISA*        FAIR      73  55  53 S3        29.85S
BUMPASS*       NOT AVBL
FARMVILLE*     CLOUDY    67  56  67 CALM      29.86S
CREWE*         NOT AVBL
FORT PICKETT*  NOT AVBL
CHASE CITY*    NOT AVBL
CLARKSVILLE*   NOT AVBL
SOUTH HILL*    FAIR      65  53  65 CALM      29.95R
LAWRENCEVILLE* NOT AVBL
EMPORIA*       FAIR      68  50  52 SE3       29.91R
$$

VAZ088>098-240000-
SOUTHEAST VIRGINIA

CITY           SKY/WX    TMP DP  RH WIND       PRES   REMARKS
NORFOLK        FAIR      67  54  63 S8        29.91R
VIRGINIA BEACH FAIR      63  51  65 S7        29.91R
NORFOLK NAVAL  FAIR      68  53  58 SE7G21    29.92R
WEST POINT*    FAIR      67  48  51 S5        29.89R
SALUDA*        NOT AVBL
NEWPORT NEWS   FAIR      68  54  60 SE13      29.89R
LANGLEY AFB    FAIR      67  55  64 S13       29.90R
FORT EUSTIS    FAIR      68  52  57 S6        29.87R
WILLIAMSBURG*  FAIR      72  54  53 S8        29.89S
HR EXEC AP*    NOT AVBL
FRANKLIN*      FAIR      68  53  58 SE6       29.90R
US460-WAKEFLD  FAIR      69  53  56 S3        29.89R
$$

VAZ020-022-025-037-045-240000-
WEST CENTRAL AND SOUTHWEST VIRGINIA

CITY           SKY/WX    TMP DP  RH WIND       PRES   REMARKS
STAUNTON*      FAIR      66  50  56 S6        29.88R
WAYNESBORO*    NOT AVBL
HOT SPRINGS VA CLOUDY    57  45  62 CALM      29.95R
LYNCHBURG      MOCLDY    68  52  56 MISG      29.89R
DANVILLE       FAIR      68  52  56 CALM      29.87R
SOUTH BOSTON*  NOT AVBL
MARTINSVILLE   CLOUDY    64  54  68 CALM      29.90R
ROANOKE        MOCLDY    69  50  50 S10       29.89R
BLACKSBURG     CLOUDY    66  52  60 S5        29.92S
DUBLIN*        CLOUDY    64  52  64 S6        29.91R
MARION*        CLOUDY    64  51  62 SE5       29.92R
HILLSVILLE*    CLOUDY    60  52  73 CALM      29.91R
RICHLANDS*     CLOUDY    62  52  69 NE6       29.89R
WISE*          FAIR      63  50  63 CALM      29.90R
ABINGDON*      CLOUDY    68  52  57 SE6       29.86R
$$

MDZ021>025-VAZ099-100-240000-
SOUTHERN MARYLAND AND THE DELMARVA PENINSULA

CITY           SKY/WX    TMP DP  RH WIND       PRES   REMARKS
PATUXENT RIVER FAIR      57  51  80 SE6       29.87R
BAY BRIDGE APT FAIR      63  52  67 S12       29.86R
LEONARDTOWN    FAIR      70  50  49 S3        29.88R
DOVER          FAIR      67  55  65 S12       29.86R
GEORGETOWN     FAIR      68  49  50 SW9       29.89R
EASTON         CLEAR     66  52  59 S7        29.90R
CAMBRIDGE      CLEAR     63  52  67 S10       29.88R
SALISBURY      FAIR      64  53  67 S8        29.89R
OCEAN CITY     FAIR      57  51  80 SW7       29.91R
WALLOPS ISLAND FAIR      57  52  83 S10       29.91S
ACCOMACK*      FAIR      60  52  74 S12G18    29.90S
$$

NCZ012>017-030>032-240000-
NORTH CENTRAL AND EASTERN NORTH CAROLINA

CITY           SKY/WX    TMP DP  RH WIND       PRES   REMARKS
ROANOKE RAPIDS FAIR      68  50  52 SE3       29.89R
RALEIGH        FAIR      70  48  45 S3        29.89R
ELIZABETH CITY FAIR      63  54  72 SE7       29.92R
AHOSKIE*         N/A     68  52  56 SE5       29.90R
EDENTON*       FAIR      68  56  64 S5        29.92R
CURRITUCK*     FAIR      65  55  68 CALM      29.93R
KILL DEVIL HLS NOT AVBL
MANTEO         FAIR      60  55  86 E7        29.92S
CAPE HATTERAS  FAIR      68  58  70 SE9       29.91S HAZE
TARBORO*       NOT AVBL
GOLDSBORO      FAIR      70  53  54 E3        29.86R
WASHINGTON     FAIR      66  56  71 SE9       29.90S
GREENVILLE     FAIR      70  55  60 SE8       29.91R
NEW BERN       FAIR      66  60  81 E7        29.91R
WILMINGTON     FAIR      67  57  70 E3        29.88R
$$

VAZ048-240000-
ELSEWHERE

CITY           SKY/WX    TMP DP  RH WIND       PRES   REMARKS
HARRISBURG PA  MOCLDY    72  51  47 VRB5      29.79R
BALTIMORE      MOCLDY    67  53  61 SE7       29.83R
ANNAPOLIS      FAIR      60  51  72 S12       29.85R
ANDREWS AFB    FAIR      70  52  53 S10       29.84R
PHILADELPHIA   FAIR      67  52  58 S8        29.84R
HENDERSON NC   FAIR      66  48  51 CALM      29.89R
GREENSBORO     MOCLDY    69  50  50 S9        29.87R
ROCKY MOUNT    FAIR      67  53  61 CALM      29.88R
$$

VAZ100-240000-
MARINE

STATION/POSITION TIME  TEMP    WIND        PRES    WAVE   SWELL
                       AIR SEA DIR/SP/G            HT/PER HT/PER
                 (UTC) (F)     (DEG/KT/KT) (MB)    (FT/S) (FT/S)
CAPE MAY NJ      2248   54 46  160/ 11/ 16 1011.6R
LEWES DE         2248   64 43  180/  8/ 11 1011.9R
OCEAN-CITY-INLET 2248   49 45  210/  8/  9 1013.1R
WACHAPREAGUE VA  2248   59 54  200/ 11/ 14 1012.6R
THOMAS POINT MD  2300   54 44  170/ 12/ 12   N/A
GOOSES REEF MD   2300   49 45  160/ 14/ 16 1011.7    1/ 3
COVE POINT MD    2248   52     190/ 16/ 17 1011.9R
SOLOMONS ISLAND  2248   55 45  140/  9/ 12   N/A
BISHOPS HEAD MD  2248   52 53  160/ 12/ 13 1012.3R
PINEY POINT MD   2248          150/  7/  7   N/A
POTOMAC MD       2300   56 47  190/ 12/ 14 1011.1    2/ 3
CAMBRIDGE MD     2248   65 43  170/  5/  8 1010.8R
LEWISETTA VA     2248   65 50  170/  7/  9 1011.2R
RAPPAHANNOCK LGT 2248          160/ 14/ 15 1012.7F
YORK RVR RNG VA  2248   54     170/ 15/ 15 1011.5R
YORKTOWN VA      2248   69 47  180/ 10/ 12 1011.6R
JAMESTOWN VA     2300   64 53  160/  6/ 10   N/A     1
DOMINION TERM VA 2248   63     170/ 12/ 14 1012.4R
KIPTOPEKE VA     2248      49  170/ 15/ 16   N/A
CHES BAY BRIDGE  2248   63 47  170/ 11/ 13 1012.7R
CAPE HENRY VA    2248   63     160/  6/  9   N/A
WILLOUBY STN VA  2248   67     160/ 13/ 15 1013.4R
S CRANEY ISL VA  2248   67     200/  7/ 10 1012.4R
CAPE HENRY BUOY  2242      50                N/A     3/11   2/11
OFFSHORE WE BUOY 2251      49                N/A     3/11   2/11
64NM E OF VA BCH 2250   59 55  130/  6/  6 1013.4R   3/11   3/11
DUCK PIER NC     2248   56 50  130/  5/  6 1012.8R
44100 DUCK FRF   2205      50                N/A     3/11   2/11
44056 DUCK FRF   2230      52                N/A     3/11   2/11
OREGON INLET NC  2248           70/  5/  7 1013.1R
HATTERAS NC      2248   66 61  100/  3/  8 1012.5R
DIAMOND SHLS NC  2250   70 73  140/ 17/ 19 1012.7R   5/ 6   2/10
CAPE LOOKOUT NC  2300   65     120/ 10/ 10 1012.0R
$$



USA.gov is the U.S. government's official web portal to all federal, state and local government web resources and services.